Weather History for KLNK - January, 1999

Change the Weather History Date:

Friday, January 22, 1999

  Actual Average Record
Temperature  
Mean Temperature 32 °F 25 °F  
Max Temperature 33 °F 36 °F 60 °F (2009)
Min Temperature 30 °F 14 °F -14 °F (1930)
Degree Days  
Heating Degree Days 34 40  
Month to date heating degree days 896  
Since 1 July heating degree days 3341  
Cooling Degree Days 0 0  
Month to date cooling degree days 0  
Year to date cooling degree days 0  
Moisture  
Dew Point 30 °F    
Average Humidity 92    
Maximum Humidity 100    
Minimum Humidity 87    
Precipitation  
Precipitation 0.16 in 0.02 in 0.64 in (1982)
Month to date precipitation 0.43  
Year to date precipitation 0.43  
Snow  
Snow 0.00 in 0.20 in - ()
Month to date snowfall 3.6  
Since 1 July snowfall 12.3  
Snow Depth -    
Sea Level Pressure  
Sea Level Pressure 29.85 in    
Wind  
Wind Speed 19 mph (North)    
Max Wind Speed 28 mph    
Max Gust Speed 34 mph    
Visibility 4 miles    
Events Rain , Snow    
T = Trace of Precipitation, MM = Missing Value Source: NWS Daily Summary

Daily Weather History Graph

Daily Weather History Graph

Search for Another Location

Airport or City:

Trip Planner

Search our weather history database for the weather conditions in past years. The results will help you decide how hot, cold, wet, or windy it might be!

Date:

Astronomy

Jan. 22, 1999 Rise Set
Actual Time 7:45 AM CST 5:31 PM CST
Civil Twilight 7:16 AM CST 6:01 PM CST
Nautical Twilight 6:42 AM CST 6:35 PM CST
Astronomical Twilight 6:10 AM CST 7:07 PM CST
Moon 10:49 AM CST (1/22) 11:11 PM CST (1/22)
Length of Visible Light 10h 45m
Length of Day
9h 46m
Waxing Crescent, 28% of the Moon is Illuminated
Jan 22
Waxing Crescent
Jan 24
First Quarter
Jan 31
Full
Feb 8
Last Quarter
Feb 16
New

Hourly Weather History & Observations

Time (CST) Temp. Windchill Dew Point Humidity Pressure Visibility Wind Dir Wind Speed Gust Speed Precip Events Conditions
1:54 AM 33.1 °F 23.0 °F 32.0 °F 96% 29.71 in 3.0 mi North 15.0 mph - 0.09 in Snow Light Snow
2:54 AM 33.1 °F 21.9 °F 32.0 °F 96% 29.73 in 4.0 mi North 18.4 mph - 0.06 in Rain Light Rain
3:16 AM 33.8 °F 22.8 °F 32.0 °F 93% 29.71 in 4.0 mi North 18.4 mph - 0.00 in Rain Light Rain
3:54 AM 33.1 °F 21.9 °F 32.0 °F 96% 29.75 in 5.0 mi North 18.4 mph - 0.00 in   Drizzle
4:05 AM 33.8 °F 22.8 °F 32.0 °F 93% 29.73 in 5.0 mi North 18.4 mph 24.2 mph 0.00 in   Drizzle
4:21 AM 33.8 °F 22.8 °F 32.0 °F 93% 29.73 in 4.0 mi North 18.4 mph - 0.00 in   Drizzle
4:34 AM 33.8 °F 22.8 °F 30.2 °F 87% 29.75 in 5.0 mi North 18.4 mph - 0.00 in   Drizzle
4:54 AM 33.1 °F 22.6 °F 32.0 °F 96% 29.78 in 4.0 mi North 16.1 mph - 0.00 in Snow Light Snow
5:40 AM 33.8 °F 22.5 °F 30.2 °F 87% 29.77 in 4.0 mi North 19.6 mph 25.3 mph 0.00 in Snow Light Snow
5:46 AM 33.8 °F 22.8 °F 30.2 °F 87% 29.77 in 3.0 mi North 18.4 mph 25.3 mph 0.00 in Snow Light Snow
5:54 AM 33.1 °F 22.2 °F 30.9 °F 92% 29.81 in 2.5 mi North 17.3 mph - 0.00 in Snow Light Snow
6:07 AM 32.0 °F 20.8 °F 32.0 °F 100% 29.78 in 1.8 mi North 17.3 mph - 0.00 in Snow Light Snow
6:54 AM 32.0 °F 19.5 °F 30.9 °F 96% 29.82 in 2.5 mi North 21.9 mph 27.6 mph 0.01 in Snow Light Snow
7:07 AM 32.0 °F 20.1 °F 28.4 °F 87% 29.79 in 5.0 mi North 19.6 mph - 0.00 in Snow Light Snow
7:54 AM 32.0 °F 19.5 °F 30.9 °F 96% 29.81 in 2.5 mi North 21.9 mph - 0.00 in Snow Light Snow
8:54 AM 33.1 °F 19.6 °F 30.9 °F 92% 29.77 in 5.0 mi North 27.6 mph 34.5 mph 0.00 in   Overcast
9:54 AM 33.1 °F 21.9 °F 30.9 °F 92% 29.88 in 5.0 mi North 18.4 mph 24.2 mph N/A   Overcast
10:54 AM 33.1 °F 22.6 °F 30.9 °F 92% 29.94 in 3.0 mi North 16.1 mph - N/A   Overcast
11:05 AM 32.0 °F 21.2 °F 30.2 °F 93% 29.91 in 2.0 mi NNW 16.1 mph - N/A   Overcast
11:40 AM 32.0 °F 20.5 °F 30.2 °F 93% 29.89 in 1.5 mi NNW 18.4 mph - 0.00 in Snow Light Snow
11:54 AM 32.0 °F 19.8 °F 30.0 °F 92% 29.90 in 1.5 mi NNW 20.7 mph 26.5 mph 0.00 in Snow Light Snow
12:11 PM 32.0 °F 20.5 °F 30.2 °F 93% 29.85 in 1.5 mi NNW 18.4 mph - 0.00 in Rain , Snow Light Freezing Rain
12:28 PM 32.0 °F 19.5 °F 30.2 °F 93% 29.84 in 1.5 mi NNW 21.9 mph 28.8 mph 0.00 in Snow Light Snow
12:43 PM 30.2 °F 16.5 °F 28.4 °F 93% 29.85 in 2.0 mi NNW 24.2 mph - 0.00 in Snow Light Snow
12:54 PM 32.0 °F 18.6 °F 30.0 °F 92% 29.87 in 2.0 mi NNW 25.3 mph 28.8 mph 0.00 in   Overcast
1:54 PM 32.0 °F 19.2 °F 30.0 °F 92% 29.90 in 2.0 mi NNW 23.0 mph - N/A   Overcast
2:54 PM 32.0 °F 20.8 °F 30.0 °F 92% 29.93 in 2.0 mi NNW 17.3 mph - N/A   Overcast
3:54 PM 32.0 °F 18.6 °F 28.9 °F 88% 29.92 in 2.0 mi NNW 25.3 mph - N/A   Overcast
4:54 PM 32.0 °F 19.2 °F 28.9 °F 88% 29.92 in 2.0 mi NNW 23.0 mph 26.5 mph N/A   Overcast
5:10 PM 32.0 °F 20.1 °F 28.4 °F 87% 29.90 in 2.0 mi North 19.6 mph - N/A   Overcast
5:44 PM 32.0 °F 19.2 °F 28.4 °F 87% 29.91 in 3.0 mi North 23.0 mph - N/A   Overcast
5:54 PM 30.9 °F 19.4 °F 28.9 °F 92% 29.95 in 5.0 mi North 17.3 mph - N/A   Overcast
6:54 PM 30.9 °F 18.7 °F 28.9 °F 92% 29.95 in 5.0 mi North 19.6 mph - N/A   Overcast
7:54 PM 30.9 °F 19.8 °F 28.0 °F 89% 29.95 in 5.0 mi North 16.1 mph - N/A   Overcast
8:54 PM 30.9 °F 19.4 °F 28.9 °F 92% 29.96 in 5.0 mi NNW 17.3 mph - N/A   Overcast
9:54 PM 30.0 °F 18.3 °F 28.0 °F 92% 29.96 in 6.0 mi NNW 17.3 mph - N/A   Overcast
10:54 PM 30.0 °F 17.9 °F 28.0 °F 92% 29.96 in 6.0 mi NNW 18.4 mph - N/A   Overcast
11:54 PM 30.0 °F 19.1 °F 27.0 °F 88% 29.96 in 6.0 mi NNW 15.0 mph - N/A   Overcast